Date,TemperatureHighF,TemperatureAvgF,TemperatureLowF,DewpointHighF,DewpointAvgF,DewpointLowF,HumidityHigh,HumidityAvg,HumidityLow,PressureMaxIn,PressureMinIn,WindSpeedMaxMPH,WindSpeedAvgMPH,GustSpeedMaxMPH,PrecipitationSumIn
2013-2-4,78,73,69,64,63,61,82,71,56,29.82,29.75,4,1,8,0.00
2013-2-5,89,75,67,70,65,61,91,73,43,29.86,29.76,12,2,19,0.02
2013-2-6,85,77,71,70,68,63,93,75,47,29.84,29.73,11,3,18,0.04
2013-2-7,87,78,69,72,70,66,92,77,53,29.81,29.70,13,3,19,0.17
2013-2-8,86,78,72,72,70,67,94,76,56,29.82,29.72,13,2,17,0.21
2013-2-9,86,78,69,72,69,66,92,76,54,29.84,29.74,12,2,17,0.00
2013-2-10,88,78,69,72,68,66,92,75,55,29.89,29.78,14,3,18,0.04
2013-2-11,83,78,73,72,69,64,87,74,61,29.92,29.83,16,5,27,0.13
2013-2-12,84,77,68,65,63,60,85,64,48,29.91,29.83,13,3,19,0.00
2013-2-13,88,77,67,68,65,61,89,69,45,29.89,29.78,11,3,17,0.00
2013-2-14,86,77,70,72,69,66,92,78,55,29.89,29.80,13,3,21,0.02
2013-2-15,88,79,70,72,68,64,93,71,47,29.89,29.77,14,3,24,0.00
2013-2-16,88,79,71,70,67,62,89,68,45,29.83,29.73,14,3,22,0.00
2013-2-17,88,79,72,72,69,66,90,72,49,29.87,29.75,12,2,21,0.00
2013-2-18,85,77,70,71,69,66,90,75,60,29.92,29.82,14,3,22,0.00
2013-2-19,86,77,70,72,68,65,88,77,57,29.91,29.80,13,3,24,0.04
2013-2-20,86,77,70,72,69,66,90,76,52,29.87,29.73,14,3,21,0.01
2013-2-21,89,79,70,72,68,63,91,71,49,29.85,29.72,10,2,16,0.00
2013-2-22,86,78,69,72,69,65,89,75,55,29.87,29.77,14,4,19,0.00
2013-2-23,134,79,55,77,68,42,84,70,56,29.86,29.75,15,4,23,0.00
2013-2-24,85,77,69,72,69,65,88,77,62,29.85,29.71,13,3,20,0.00
2013-2-25,90,79,69,71,68,61,91,71,39,29.81,29.68,11,3,17,0.00
2013-2-26,86,79,73,73,70,66,88,74,52,29.85,29.74,12,3,21,0.02
2013-2-27,90,81,72,72,69,64,91,70,43,29.85,29.72,14,4,17,0.00
2013-2-28,90,80,72,71,68,61,85,68,40,29.82,29.68,15,3,19,0.00
2013-3-1,89,80,72,71,67,58,86,66,38,29.78,29.65,13,3,17,0.00
2013-3-2,90,79,69,69,66,63,87,66,43,29.76,29.65,11,3,17,0.00
2013-3-3,93,80,69,73,69,64,87,71,43,29.79,29.67,13,3,18,0.00
2013-3-4,93,78,72,74,71,65,94,79,49,29.85,29.73,14,3,21,0.47
2013-3-5,80,75,72,73,70,66,95,85,68,29.89,29.79,11,2,17,0.21
2013-3-6,86,78,69,70,67,65,91,72,57,29.88,29.76,12,3,18,0.00
2013-3-7,90,79,70,73,70,67,92,75,50,29.85,29.74,11,2,14,0.00
2013-3-8,85,76,71,73,68,62,91,76,60,29.85,29.76,8,2,11,0.00
2013-3-9,87,74,68,70,67,64,91,80,54,29.84,29.75,11,2,17,0.05
2013-3-10,84,77,72,69,65,60,90,68,48,29.82,29.72,11,3,16,0.01
2013-3-11,84,77,70,66,63,61,82,63,49,29.82,29.72,14,4,20,0.00
2013-3-12,84,78,71,65,62,55,78,59,40,29.88,29.76,14,4,21,0.00
2013-3-13,80,76,73,62,59,57,67,56,48,29.84,29.79,9,2,14,0.00
2013-3-14,86,80,73,64,62,56,73,54,42,29.82,29.67,14,4,21,0.00
2013-3-15,86,78,70,66,63,59,82,60,43,29.82,29.70,11,3,18,0.00
2013-3-16,86,77,70,70,66,61,85,70,49,29.85,29.74,16,4,22,0.04
2013-3-17,87,78,70,73,68,66,94,74,51,29.90,29.77,15,4,22,0.12
2013-3-18,85,77,71,72,69,66,94,77,56,29.90,29.79,16,4,24,0.28
2013-3-19,86,77,72,73,70,68,94,81,61,29.84,29.69,11,2,18,0.05
2013-3-20,90,81,72,72,70,66,91,71,47,29.77,29.64,14,4,19,0.00
2013-3-21,93,82,76,72,70,67,83,68,45,29.76,29.62,13,4,19,0.00
2013-3-22,93,81,74,76,72,69,93,75,47,29.83,29.70,11,3,17,0.35
2013-3-23,88,80,75,76,74,70,93,81,61,29.86,29.75,15,3,22,0.02
2013-3-24,87,82,74,74,72,67,90,73,60,29.82,29.66,14,4,24,0.00
2013-3-25,92,81,74,73,71,66,88,73,46,29.79,29.66,12,4,19,0.00
2013-3-26,92,82,74,73,70,65,88,68,42,29.83,29.69,14,4,21,0.00
2013-3-27,93,81,72,75,72,62,88,75,38,29.83,29.72,11,4,16,0.00
2013-3-28,88,81,73,74,71,68,90,72,53,29.83,29.73,12,4,18,0.00
2013-3-29,84,76,74,74,70,66,90,82,67,29.92,29.77,17,5,24,0.08
2013-3-30,82,76,71,74,70,66,95,82,68,29.93,29.83,14,5,24,0.56
2013-3-31,97,77,72,74,72,70,95,85,71,29.92,29.84,14,3,20,0.66
2013-4-1,88,80,74,74,71,68,95,74,53,29.90,29.79,14,4,21,0.07
2013-4-2,89,81,72,73,71,68,92,74,50,29.85,29.75,17,4,24,0.00
2013-4-3,90,82,75,74,72,66,89,73,49,29.86,29.74,12,4,17,0.01
2013-4-4,89,80,73,74,71,69,91,76,53,29.88,29.77,12,2,19,0.00
2013-4-5,90,79,72,75,71,58,89,77,57,29.87,29.73,10,2,14,0.14
2013-4-6,98,81,73,74,72,59,92,75,51,29.83,29.72,16,4,24,0.00
2013-4-7,91,83,74,77,72,68,92,71,47,29.84,29.73,13,3,19,0.20
2013-4-8,91,83,77,75,73,66,91,71,46,29.84,29.74,15,5,24,0.12
2013-4-9,96,81,75,75,73,68,93,77,53,29.85,29.72,15,4,24,0.07
2013-4-10,88,81,74,76,72,69,94,75,55,29.83,29.73,16,4,24,0.05
2013-4-11,88,81,73,73,69,67,88,69,53,29.83,29.72,14,4,27,0.01
2013-4-12,89,80,72,74,70,67,84,72,52,29.81,29.72,14,4,22,0.00
2013-4-13,95,82,67,83,71,56,88,71,49,29.80,29.70,12,4,19,0.00
2013-4-14,89,81,77,74,71,68,82,73,54,29.82,29.72,14,4,17,0.08
2013-4-15,93,80,74,78,72,66,89,77,57,29.84,29.75,18,3,25,0.21
2013-4-16,88,76,71,74,71,69,93,84,59,29.84,29.74,14,2,21,0.19
2013-4-17,86,78,71,74,71,69,95,80,62,29.81,29.71,12,3,23,0.64
2013-4-18,86,80,72,74,70,66,92,75,53,29.84,29.74,16,5,24,0.21
2013-4-19,84,80,74,72,70,68,89,72,59,29.88,29.78,16,6,28,0.05
2013-4-20,84,77,74,73,72,68,92,83,66,29.87,29.77,14,3,23,0.37
2013-4-21,85,78,71,76,69,64,96,74,50,29.86,29.76,15,4,24,0.01
2013-4-22,87,78,69,71,68,65,87,70,53,29.82,29.72,15,4,22,0.00
2013-4-23,86,79,70,72,69,47,90,72,56,29.94,29.74,14,3,21,0.01
2013-4-24,89,79,75,72,71,68,86,75,53,29.94,29.85,14,3,21,0.00
2013-4-25,87,79,71,72,70,68,91,74,57,29.97,29.87,15,4,20,0.00
2013-4-26,86,80,72,72,70,68,90,73,59,29.95,29.88,13,4,19,0.01
2013-4-27,87,79,72,74,71,69,95,78,59,29.93,29.83,14,3,21,0.22
2013-4-28,108,80,73,85,72,57,96,77,58,29.92,29.83,13,4,18,0.15
2013-4-29,87,80,72,74,72,69,92,78,63,29.92,29.84,13,3,18,0.05
2013-4-30,102,78,55,77,73,52,99,85,63,29.94,29.86,13,2,18,2.57
2013-5-1,90,81,72,75,72,68,96,76,53,29.93,29.82,11,2,16,0.00
2013-5-2,90,82,74,76,74,72,92,77,58,29.87,29.77,12,2,18,0.00
2013-5-3,94,83,75,76,74,71,91,76,49,29.83,29.74,9,2,14,0.00
2013-5-4,89,84,79,76,74,73,82,74,63,29.78,29.68,8,2,12,0.00
2013-5-5,107,82,74,85,75,64,97,82,52,29.86,29.71,12,2,15,1.13
2013-5-6,93,80,75,78,75,73,96,86,59,29.94,29.82,12,2,16,0.05
2013-5-7,90,79,74,78,75,73,98,89,63,30.01,29.85,9,1,16,0.81
2013-5-8,88,78,75,78,76,74,99,92,66,30.05,29.94,10,2,14,2.49
2013-5-9,87,78,74,77,75,71,98,88,67,30.06,29.95,11,3,20,0.34
2013-5-10,90,78,72,77,74,71,97,86,62,30.03,29.84,9,3,16,0.58
2013-5-11,91,80,71,76,73,57,97,80,54,29.97,29.85,11,2,15,0.01
2013-5-12,90,80,75,77,74,72,96,83,59,29.93,29.85,12,2,16,0.22
2013-5-13,92,81,73,78,74,62,97,82,56,29.96,29.87,11,2,19,1.43
2013-5-14,91,83,75,76,74,69,95,77,54,29.96,29.86,13,3,20,0.00
2013-5-15,90,82,77,77,75,72,91,79,59,29.94,29.87,12,2,17,0.04
2013-5-16,90,81,76,76,74,72,92,79,56,29.96,29.86,8,2,14,0.02
2013-5-17,88,82,75,77,74,72,92,75,61,30.00,29.90,13,4,21,0.04
2013-5-18,87,81,73,74,72,70,93,75,60,29.99,29.91,14,4,22,0.00
2013-5-19,89,81,75,76,73,70,92,77,55,29.97,29.88,11,3,16,0.12
2013-5-20,88,81,74,76,73,70,94,77,57,29.96,29.88,13,4,23,0.00
2013-5-21,85,78,73,77,74,72,99,89,74,29.94,29.86,11,2,18,3.41
2013-5-22,81,76,72,77,75,72,99,95,84,29.97,29.86,17,2,24,0.80
2013-5-23,89,80,73,76,74,72,99,81,62,29.99,26.88,14,4,25,0.01
2013-5-24,88,80,75,77,75,73,96,85,64,29.98,29.89,10,3,17,0.28
2013-5-25,89,82,76,77,74,71,95,79,58,29.99,29.89,14,3,17,0.02
2013-5-26,89,81,75,77,75,73,93,82,67,30.00,29.91,13,4,19,0.00
2013-5-27,88,79,0,78,75,70,99,84,66,29.98,29.83,14,3,23,2.88
2013-5-28,90,80,75,86,76,73,97,86,70,29.92,29.85,13,3,20,0.08
2013-5-29,88,82,76,76,75,74,95,79,63,29.94,29.84,15,5,24,0.05
2013-5-30,89,82,77,76,74,73,93,79,62,29.94,29.85,11,4,19,0.22
2013-5-31,85,80,76,76,75,73,90,84,74,29.97,29.87,11,3,18,0.08
2013-6-1,88,82,74,75,74,72,94,76,61,29.94,29.85,11,3,23,0.01
2013-6-2,89,81,75,76,72,70,91,76,57,29.93,29.85,11,3,17,0.74
2013-6-3,93,83,75,75,73,70,91,74,50,29.93,29.84,10,3,15,0.00
2013-6-4,88,82,78,75,73,68,90,74,59,29.95,29.83,17,5,29,0.05
2013-6-5,89,82,75,76,73,70,92,77,57,29.99,29.90,11,3,16,0.12
2013-6-6,88,82,74,76,73,70,94,77,57,29.98,29.91,13,4,19,0.00
2013-6-7,105,82,80,94,73,72,77,74,63,29.97,29.91,10,4,18,0.00
2013-6-8,98,82,76,75,73,67,87,75,57,29.99,29.90,10,3,14,0.00
2013-6-9,91,84,79,76,73,69,83,72,50,30.00,29.93,13,4,22,0.00
2013-6-10,85,80,78,76,74,73,89,84,69,29.99,29.93,11,2,16,0.02
2013-6-11,87,82,77,75,74,69,87,77,64,30.02,29.94,12,3,21,0.00
2013-6-22,90,82,77,77,75,72,91,79,61,29.92,29.85,9,3,14,0.04
2013-6-23,90,82,76,76,74,72,92,78,56,29.91,29.84,8,2,14,0.02
2013-6-24,88,81,75,76,74,72,92,78,61,29.95,29.88,11,3,18,0.04
2013-6-25,87,81,73,74,72,70,93,76,60,29.98,29.89,11,4,19,0.00
2013-6-26,89,82,75,76,73,70,89,75,55,29.95,29.86,11,3,16,0.00
2013-6-27,88,81,74,76,73,70,94,79,57,29.96,29.86,13,4,19,0.12
2013-6-28,85,79,73,77,73,70,99,82,68,29.93,29.85,11,3,18,2.44
2013-6-29,94,83,77,76,70,59,81,66,48,29.93,29.84,14,4,22,0.00
2013-6-30,87,81,78,75,72,69,79,72,59,29.95,29.85,11,3,17,0.27
2013-7-1,91,82,76,74,70,66,86,70,49,30.00,29.89,13,2,21,0.26
2013-7-2,87,80,75,74,70,66,86,73,56,30.03,29.93,14,3,20,0.37
2013-7-3,88,80,74,75,71,68,89,75,54,30.00,29.90,14,3,21,0.70
2013-7-4,91,84,77,75,72,67,89,70,47,29.99,29.90,14,4,22,0.08
2013-7-5,85,80,73,77,72,69,99,78,63,29.95,29.86,12,4,23,2.44
2013-7-6,88,83,80,70,68,66,69,62,49,29.95,29.89,14,4,21,0.00
2013-7-7,91,80,76,76,72,69,89,78,49,29.95,29.85,8,2,20,1.33
2013-7-8,91,84,78,75,72,66,88,68,43,30.01,29.89,14,4,24,0.01
2013-7-9,89,83,76,76,73,68,85,73,55,30.01,29.93,15,4,25,0.38
2013-7-10,90,83,76,76,72,68,85,71,51,29.99,29.90,9,2,16,0.09
2013-7-11,90,84,78,73,71,68,80,66,49,29.97,29.90,12,3,17,0.00
2013-7-12,90,83,78,73,69,65,82,64,47,29.94,29.83,12,3,17,0.00
2013-7-13,92,82,76,72,69,65,82,65,47,29.93,29.85,14,3,20,0.09
2013-7-14,91,80,75,71,69,65,82,69,44,29.92,29.84,8,2,17,0.19
2013-7-15,91,82,76,73,69,64,80,65,43,29.96,29.79,12,3,20,0.06
2013-7-16,94,84,76,75,70,64,82,64,40,29.99,29.91,11,3,19,0.02
2013-7-17,90,84,79,74,71,67,81,67,50,29.99,29.91,15,4,25,0.20
2013-7-18,89,77,72,76,73,69,95,86,63,30.05,29.89,9,1,15,3.20
2013-7-19,91,84,74,76,71,68,94,68,48,30.03,29.95,17,4,24,3.21
2013-7-20,89,82,73,77,72,68,99,73,53,29.96,29.82,14,4,21,2.44
2013-7-21,91,84,75,73,69,65,83,61,46,29.96,29.87,14,4,22,0.26
2013-7-22,84,80,77,75,72,68,85,76,67,29.97,29.88,8,1,17,0.72
2013-7-23,92,84,78,75,71,66,85,65,45,29.94,29.84,13,3,23,0.00
2013-7-24,94,84,76,72,70,66,78,63,40,29.90,29.82,13,3,20,0.00
2013-7-25,91,85,79,75,70,65,79,62,43,29.97,29.86,12,3,19,0.02
2013-7-26,92,81,77,73,70,64,84,70,41,29.97,29.89,11,2,17,1.35
2013-7-27,93,83,75,72,68,62,84,62,40,29.95,29.85,10,3,17,0.01
2013-7-28,90,82,76,73,70,65,80,67,44,29.93,29.85,11,2,16,0.08
2013-7-29,93,79,75,71,70,66,83,75,43,29.91,29.85,2,0,5,0.00
2013-7-30,94,83,77,72,68,64,77,61,42,29.99,29.86,8,2,14,0.00
2013-7-31,92,82,76,72,69,64,80,65,43,29.93,29.84,14,2,20,1.12
2013-8-1,90,79,73,77,72,68,99,79,47,29.94,29.85,9,2,14,3.11
2013-8-2,92,85,76,73,69,60,83,59,36,29.99,29.90,14,4,26,0.01
2013-8-3,91,86,81,72,70,68,70,59,50,29.99,29.88,14,5,23,0.00
2013-8-4,92,85,83,71,70,67,68,61,44,29.97,29.84,13,4,18,0.00
2013-8-5,92,84,77,73,68,64,79,59,41,29.92,29.81,11,3,17,0.08
2013-8-6,92,80,75,74,68,60,89,69,36,29.88,29.79,14,2,24,2.06
2013-8-7,90,82,75,74,70,65,90,69,47,29.87,29.77,12,2,21,0.28
2013-8-8,91,83,76,74,69,62,83,65,39,29.85,29.75,14,3,111,0.41
2013-8-9,90,82,76,74,70,66,85,69,46,29.88,29.78,14,2,24,0.47
2013-8-10,92,85,78,74,69,60,81,60,41,29.90,29.80,13,4,21,0.06
2013-8-11,93,84,76,70,66,58,77,56,37,29.92,29.81,14,4,24,0.00
2013-8-12,90,81,75,69,66,62,73,60,41,29.92,29.82,13,2,19,0.06
2013-8-13,94,84,75,70,66,58,78,55,33,29.91,29.82,11,3,20,0.00
2013-8-14,95,85,76,70,65,56,74,53,28,29.92,29.82,13,3,20,0.00
2013-8-15,92,85,79,70,67,61,69,55,39,29.91,29.83,14,4,20,0.00
2013-8-16,89,80,76,74,70,64,85,72,51,29.88,29.78,12,1,17,1.33
2013-8-17,93,83,76,76,69,62,85,65,37,29.88,29.78,11,2,18,0.01
2013-8-18,94,83,77,74,69,62,83,64,37,29.89,29.81,13,2,21,0.35
2013-8-19,95,82,77,74,70,64,82,70,37,29.86,29.76,9,1,14,0.79
2013-8-20,90,81,78,73,70,65,82,69,47,29.92,29.77,11,2,21,0.08
2013-8-21,92,83,75,71,68,62,79,63,39,29.91,29.83,10,3,19,0.02
2013-8-22,90,80,76,70,68,64,77,66,43,29.91,29.81,9,1,14,0.13
2013-8-23,93,80,75,74,70,58,81,71,49,29.89,29.79,11,1,17,0.27
2013-8-24,94,80,75,73,70,65,83,74,44,29.92,29.84,8,1,13,0.01
2013-8-25,90,84,79,70,68,59,73,58,42,29.93,29.84,14,4,24,0.07
2013-8-26,90,82,76,72,70,66,80,67,47,29.87,29.78,8,2,14,0.54
2013-8-27,93,84,78,71,66,55,76,57,28,29.89,29.78,8,2,14,0.00
2013-8-28,92,84,76,69,67,61,75,59,40,29.92,29.82,11,2,16,0.00
2013-8-29,91,80,72,74,69,64,86,72,42,29.91,29.82,14,2,18,2.83
2013-8-30,93,84,76,75,68,61,86,62,35,29.90,29.81,11,3,18,0.00
2013-8-31,93,83,78,72,69,62,81,64,38,29.90,29.79,9,3,16,0.57
2013-9-1,91,84,77,75,70,63,86,65,40,29.87,29.79,10,3,16,0.57
2013-9-2,92,84,78,73,67,60,77,58,39,29.85,29.75,12,3,18,0.06
2013-9-3,90,81,75,74,68,62,82,67,41,29.82,29.73,13,2,22,0.64
2013-9-4,88,79,77,74,70,68,86,75,57,29.82,29.73,13,1,19,0.83
2013-9-5,84,79,76,74,70,66,88,75,60,29.86,29.73,8,2,13,0.30
2013-9-6,88,81,76,70,68,65,79,65,47,29.86,29.76,11,3,16,0.00
2013-9-7,90,83,77,71,67,61,78,60,41,29.85,29.75,12,3,21,0.00
2013-9-8,95,85,77,70,65,58,71,52,33,29.85,29.73,14,4,20,0.04
2013-9-9,95,86,78,69,66,57,73,53,30,29.89,29.78,10,3,17,0.00
2013-9-10,92,85,77,69,65,58,71,52,35,29.91,29.82,14,4,21,0.00
2013-9-11,91,81,76,71,68,62,78,64,39,29.90,29.80,11,2,19,0.24
2013-9-12,86,80,77,74,70,68,83,73,60,29.81,29.68,5,1,9,0.66
2013-9-13,90,83,76,73,68,62,85,63,40,29.73,29.63,11,2,17,0.05
2013-9-14,96,83,76,70,68,59,78,63,34,29.84,29.69,10,2,17,0.00
2013-9-15,79,79,79,70,70,70,74,73,73,29.83,29.81,0,0,1,0.00
2013-9-16,94,85,79,73,69,61,75,59,34,29.88,29.77,10,2,15,0.00
2013-9-17,94,84,78,72,69,63,74,62,37,29.85,29.75,9,1,16,0.00
2013-9-18,96,85,77,70,67,61,76,57,35,29.85,29.73,9,2,15,0.00
2013-9-19,98,86,79,70,67,56,72,54,25,29.85,29.75,9,3,16,0.00
2013-9-20,100,84,79,70,67,54,71,58,22,29.84,29.73,7,2,12,0.00
2013-9-21,97,84,78,70,67,62,73,59,33,29.80,29.70,10,2,15,0.00
2013-9-22,96,86,77,70,64,53,76,51,27,29.86,29.74,10,3,17,0.00
2013-9-23,97,86,78,70,66,54,71,53,25,29.91,29.80,9,3,15,0.00
2013-9-24,95,86,80,70,64,42,68,50,17,29.89,29.78,11,4,17,0.00
2013-9-25,95,86,78,69,63,48,70,48,23,29.85,29.72,13,3,18,0.00
2013-9-26,95,85,78,70,64,55,71,51,27,29.83,29.70,13,3,19,0.00
2013-9-27,97,86,78,68,63,52,69,49,23,29.84,29.71,13,3,18,0.00
2013-9-28,96,86,78,69,62,52,68,47,24,29.86,29.74,13,3,19,0.00
2013-9-29,96,86,77,68,64,56,69,49,28,29.87,29.75,13,3,20,0.00
2013-9-30,94,86,80,70,65,58,70,52,30,29.91,29.80,13,3,20,0.00
2013-10-1,94,86,79,70,66,59,72,54,32,29.90,29.80,12,3,20,0.00
2013-10-2,94,83,76,71,66,59,76,59,34,29.87,29.76,14,2,21,0.00
2013-10-3,92,82,76,70,67,61,75,61,40,29.87,29.76,13,2,19,0.00
2013-10-4,94,83,74,71,66,56,79,59,28,29.90,29.73,20,3,34,0.00
2013-10-5,94,82,74,70,64,53,76,57,26,29.88,29.75,11,2,15,0.00
2013-10-6,97,82,75,71,66,56,78,62,28,29.84,29.73,9,1,14,0.00
2013-10-7,96,87,51,70,65,14,77,50,23,29.93,29.82,7,2,12,0.00